COSMOS 1275 DEB

Satellite information

Favourite Embed

Satellite Type and Status

DEBRISIN ORBIT

Key statistics

Satellite COSMOS 1275 DEB at a glance.

Uptime

16104

Days in orbit

Revolutions

≈ 13.8

Per day

Orbit

LEO

Low Earth Orbit

Inclination

82.9

Latest

Satellite identification and parameters

Extended collection of information and parameters for COSMOS 1275 DEB.

Object identification

Identified? True

Debris? True

Object name: COSMOS 1275 DEB

International designator: 1981-053AC

Object number (NORAD): 12672

Object ID (CCSDS): 12672

Country: COMMONWEALTH OF INDEPENDENT STATES (CIS)

Current information (Y/N): Y

RCS size: MEDIUM

Orbital parameters

Period: 104.072 minutes

Inclination: 82.9418 deg

SMA: 7329.103 km

Apoapsis: 970.155 km

Periapsis: 931.781 km

RAAN: 70.4131 deg

Eccentricy: 0.0026179

Argument of periapsis: 155.5812 deg

Mean anomaly: 324.2972 deg

Mean motion: 13.83650824 rev/day

Mean motion (dot): 0.00000366 rev/day2

B* drag term: 0.0003169 1/REarth

Two-line elements (TLE)

Creation date: July 6, 2025, 6:05 p.m.

Reference frame: TEME

Reference center: EARTH

Epoch: July 6, 2025, 4:24 a.m. UTC

TLE line 0: 0 COSMOS 1275 DEB

TLE line 1: 1 12672U 81053AC 25187.18343473 .00000366 00000-0 31690-3 0 9998

TLE line 2: 2 12672 82.9418 70.4131 0026179 155.5812 324.2972 13.83650824210552

Live tracking on map

Real-time ground track for satellite COSMOS 1275 DEB.

In-orbit conjunctions

A list of the most updated potential collisions computed for object COSMOS 1275 DEB.

Target Orbit TCA Probability of collision Miss distance Type
CZ-6A DEB LEO 2025-03-23 04:34:22 0.0002589219 184.0 (m) DEBRIS
THOR ABLESTAR DEB LEO 2024-12-20 09:01:20 0.0002192761 280.0 (m) DEBRIS

Associated space launch

Navigation satellite providing location information for the Tsiklon-B navigation system

COSMOS 1275 DEB was lifted into orbit during the mission ‘Kosmos-3M | Parus 27’, on board a Kosmos-3M space rocket.

The launch took place on June 4, 1981, 3:41 p.m. from 132/2.

For more information about the launch, click the button.

Launch to space Kosmos-3M | Parus 27
Kosmos-3M | Parus 27

Agency: N/A

Status: Launch Successful

Launch date: June 4, 1981, 3:41 p.m. UTC

Rocket: Kosmos-3M

Launch pad: 132/2

Location: Plesetsk Cosmodrome, Russian Federation

...

Latest news about this satellite

There are no fresh news available about this satellite. Check back as we update our databases every day.


Newsletter sign-up

Weekly statistics, charts and insights to help you stay on top of the space industry.